GEOFB HKMO-HUEN

Flight info

Callsign GEOFB
Flight time 1h 13m
Altitude 40000
Route NERAG1A GADLA UL434 OKSUM UVGUD2A
Aircraft C750/M-SBDE3FGHRWXY/S

Departure

Time 2026-04-27 11:28
Airport Moi International Airport (HKMO)

Arrival

Time 2026-04-27 12:41
Airport Entebbe International Airport (HUEN)
Time Latitude Longitude Altitude Speed Heading
2026-04-27 11:19 -4.02945 39.60066 196 ft 0 kts 30°
2026-04-27 11:22 -4.02940 39.60069 196 ft 4 kts 30°
2026-04-27 11:22 -4.02860 39.60065 203 ft 19 kts 339°
2026-04-27 11:22 -4.02766 39.60045 200 ft 15 kts 12°
2026-04-27 11:23 -4.02654 39.60087 207 ft 21 kts 29°
2026-04-27 11:23 -4.02504 39.60171 198 ft 28 kts 29°
2026-04-27 11:23 -4.02312 39.60278 207 ft 32 kts 29°
2026-04-27 11:23 -4.02122 39.60384 203 ft 30 kts 30°
2026-04-27 11:24 -4.01943 39.60484 201 ft 28 kts 29°
2026-04-27 11:24 -4.01778 39.60578 201 ft 26 kts 29°
2026-04-27 11:24 -4.01622 39.60665 206 ft 25 kts 30°
2026-04-27 11:24 -4.01476 39.60733 203 ft 22 kts
2026-04-27 11:25 -4.01382 39.60709 208 ft 0 kts 331°
2026-04-27 11:26 -4.01371 39.60702 207 ft 6 kts 323°
2026-04-27 11:26 -4.01334 39.60653 209 ft 9 kts 297°
2026-04-27 11:26 -4.01346 39.60615 212 ft 0 kts 211°
2026-04-27 11:27 -4.01361 39.60607 209 ft 18 kts 208°
2026-04-27 11:27 -4.01821 39.60354 204 ft 130 kts 209°
2026-04-27 11:27 -4.02728 39.59833 534 ft 162 kts 208°
2026-04-27 11:28 -4.03771 39.59251 1070 ft 183 kts 205°
2026-04-27 11:28 -4.04844 39.58408 1538 ft 217 kts 233°
2026-04-27 11:28 -4.05293 39.56862 2044 ft 252 kts 268°
2026-04-27 11:28 -4.04943 39.55090 2716 ft 265 kts 283°
2026-04-27 11:29 -4.04400 39.53351 3950 ft 262 kts 284°
2026-04-27 11:29 -4.03899 39.51586 4898 ft 270 kts 282°
2026-04-27 11:29 -4.03425 39.49747 5823 ft 276 kts 282°
2026-04-27 11:29 -4.02927 39.47870 6724 ft 282 kts 283°
2026-04-27 11:30 -4.02403 39.45956 7684 ft 287 kts 283°
2026-04-27 11:30 -4.01875 39.44015 8778 ft 291 kts 283°
2026-04-27 11:30 -4.01343 39.42044 9772 ft 296 kts 284°
2026-04-27 11:30 -4.00802 39.40040 10641 ft 304 kts 284°
2026-04-27 11:31 -4.00207 39.37913 10900 ft 330 kts 287°
2026-04-27 11:31 -3.99383 39.35660 10985 ft 358 kts 289°
2026-04-27 11:31 -3.98563 39.33292 11670 ft 360 kts 288°
2026-04-27 11:31 -3.97753 39.30944 12345 ft 363 kts 288°
2026-04-27 11:32 -3.96902 39.28559 12984 ft 365 kts 289°
2026-04-27 11:32 -3.96036 39.26150 13564 ft 370 kts 289°
2026-04-27 11:32 -3.95177 39.23715 14135 ft 373 kts 289°
2026-04-27 11:32 -3.94309 39.21248 14709 ft 376 kts 289°
2026-04-27 11:33 -3.93427 39.18765 15261 ft 380 kts 289°
2026-04-27 11:33 -3.92535 39.16264 15832 ft 383 kts 289°
2026-04-27 11:33 -3.91640 39.13737 16393 ft 387 kts 289°
2026-04-27 11:33 -3.90750 39.11219 16915 ft 391 kts 289°
2026-04-27 11:34 -3.89834 39.08638 17487 ft 394 kts 289°
2026-04-27 11:34 -3.88912 39.06041 18067 ft 398 kts 289°
2026-04-27 11:34 -3.87983 39.03423 18641 ft 401 kts 289°
2026-04-27 11:34 -3.87045 39.00779 19195 ft 406 kts 289°
2026-04-27 11:35 -3.86097 38.98105 19767 ft 409 kts 289°
2026-04-27 11:35 -3.85141 38.95410 20370 ft 412 kts 289°
2026-04-27 11:35 -3.84191 38.92734 20929 ft 416 kts 290°
2026-04-27 11:35 -3.83217 38.89992 21474 ft 419 kts 290°
2026-04-27 11:36 -3.82234 38.87224 21968 ft 425 kts 290°
2026-04-27 11:36 -3.81239 38.84419 22421 ft 431 kts 290°
2026-04-27 11:36 -3.80232 38.81583 22941 ft 434 kts 290°
2026-04-27 11:36 -3.79214 38.78717 23436 ft 439 kts 290°
2026-04-27 11:37 -3.78189 38.75828 23931 ft 443 kts 291°
2026-04-27 11:37 -3.77153 38.72912 24431 ft 446 kts 291°
2026-04-27 11:37 -3.76123 38.70013 24925 ft 450 kts 290°
2026-04-27 11:37 -3.75070 38.67049 25418 ft 453 kts 290°
2026-04-27 11:38 -3.74009 38.64063 25895 ft 457 kts 290°
2026-04-27 11:38 -3.72987 38.61041 26335 ft 461 kts 286°
2026-04-27 11:38 -3.72319 38.57887 26784 ft 464 kts 281°
2026-04-27 11:38 -3.71683 38.54709 27253 ft 467 kts 282°
2026-04-27 11:39 -3.71008 38.51519 27690 ft 471 kts 282°
2026-04-27 11:39 -3.70333 38.48295 28135 ft 474 kts 282°
2026-04-27 11:39 -3.69688 38.45095 28568 ft 477 kts 281°
2026-04-27 11:39 -3.69028 38.41829 28992 ft 480 kts 281°
2026-04-27 11:40 -3.68347 38.38542 29365 ft 484 kts 282°
2026-04-27 11:40 -3.67659 38.35230 29753 ft 488 kts 281°
2026-04-27 11:40 -3.66977 38.31896 30137 ft 491 kts 281°
2026-04-27 11:40 -3.66293 38.28539 30532 ft 493 kts 281°
2026-04-27 11:41 -3.65601 38.25171 30917 ft 495 kts 281°
2026-04-27 11:41 -3.64906 38.21807 31472 ft 492 kts 282°
2026-04-27 11:41 -3.64227 38.18508 32042 ft 490 kts 282°
2026-04-27 11:41 -3.63545 38.15175 32556 ft 488 kts 282°
2026-04-27 11:42 -3.62863 38.11854 33083 ft 486 kts 282°
2026-04-27 11:42 -3.62182 38.08549 33625 ft 483 kts 282°
2026-04-27 11:42 -3.61506 38.05266 34143 ft 481 kts 282°
2026-04-27 11:42 -3.60832 38.01990 34661 ft 479 kts 282°
2026-04-27 11:43 -3.60194 37.98730 35143 ft 477 kts 281°
2026-04-27 11:43 -3.59600 37.95458 35598 ft 477 kts 281°
2026-04-27 11:43 -3.59002 37.92241 36042 ft 476 kts 282°
2026-04-27 11:43 -3.58246 37.89028 36462 ft 474 kts 288°
2026-04-27 11:44 -3.57162 37.85911 36887 ft 473 kts 291°
2026-04-27 11:44 -3.56001 37.82835 37309 ft 472 kts 292°
2026-04-27 11:44 -3.54898 37.79746 37731 ft 472 kts 290°
2026-04-27 11:44 -3.53848 37.76628 38158 ft 471 kts 290°
2026-04-27 11:45 -3.52993 37.73466 38523 ft 473 kts 282°
2026-04-27 11:45 -3.52619 37.71320 38791 ft 473 kts 280°
2026-04-27 11:45 -3.52000 37.67010 39323 ft 472 kts 279°
2026-04-27 11:45 -3.51492 37.63769 39693 ft 472 kts 281°
2026-04-27 11:46 -3.50922 37.60533 40041 ft 472 kts 282°
2026-04-27 11:46 -3.50367 37.57258 40039 ft 482 kts 281°
2026-04-27 11:46 -3.49312 37.50526 40058 ft 498 kts 281°
2026-04-27 11:47 -3.48152 37.43576 40076 ft 513 kts 281°
2026-04-27 11:47 -3.47021 37.36537 40075 ft 517 kts 281°
2026-04-27 11:48 -3.45850 37.29432 40076 ft 517 kts 281°
2026-04-27 11:48 -3.44697 37.22336 40078 ft 517 kts 281°
2026-04-27 11:49 -3.43535 37.15292 40068 ft 515 kts 282°
2026-04-27 11:49 -3.41232 37.08578 40053 ft 509 kts 299°
2026-04-27 11:50 -3.37226 37.02796 40080 ft 505 kts 311°
2026-04-27 11:50 -3.32756 36.97366 40087 ft 506 kts 309°
2026-04-27 11:51 -3.28708 36.91592 40091 ft 508 kts 308°
2026-04-27 11:52 -3.22327 36.83188 40130 ft 508 kts 308°
2026-04-27 11:52 -3.18158 36.77475 40146 ft 508 kts 309°
2026-04-27 11:53 -3.13903 36.71832 40157 ft 508 kts 308°
2026-04-27 11:53 -3.09710 36.66137 40159 ft 508 kts 309°
2026-04-27 11:54 -3.05503 36.60519 40160 ft 508 kts 309°
2026-04-27 11:54 -3.01296 36.54840 40177 ft 508 kts 308°
2026-04-27 11:55 -2.97071 36.49172 40177 ft 508 kts 309°
2026-04-27 11:55 -2.92855 36.43489 40177 ft 508 kts 308°
2026-04-27 11:56 -2.88661 36.37853 40177 ft 509 kts 309°
2026-04-27 11:56 -2.84437 36.32169 40177 ft 509 kts 308°
2026-04-27 11:57 -2.80210 36.26485 40177 ft 509 kts 308°
2026-04-27 11:57 -2.76296 36.20570 40170 ft 510 kts 304°
2026-04-27 11:58 -2.72353 36.14734 40165 ft 509 kts 310°
2026-04-27 11:58 -2.67924 36.09218 40170 ft 509 kts 310°
2026-04-27 11:59 -2.63575 36.03626 40170 ft 509 kts 310°
2026-04-27 11:59 -2.59176 35.98069 40170 ft 509 kts 311°
2026-04-27 12:00 -2.54898 35.92472 40165 ft 511 kts 308°
2026-04-27 12:00 -2.50648 35.86785 40168 ft 510 kts 309°
2026-04-27 12:01 -2.46406 35.81086 40157 ft 511 kts 308°
2026-04-27 12:01 -2.42127 35.75336 40155 ft 516 kts 309°
2026-04-27 12:02 -2.37863 35.69615 40158 ft 517 kts 308°
2026-04-27 12:02 -2.33569 35.63845 40159 ft 517 kts 308°
2026-04-27 12:03 -2.29271 35.58078 40147 ft 517 kts 308°
2026-04-27 12:03 -2.24974 35.52308 40147 ft 517 kts 308°
2026-04-27 12:04 -2.20708 35.46585 40149 ft 517 kts 308°
2026-04-27 12:04 -2.16412 35.40818 40150 ft 517 kts 308°
2026-04-27 12:05 -2.12115 35.35053 40150 ft 517 kts 308°
2026-04-27 12:05 -2.07812 35.29278 40150 ft 518 kts 308°
2026-04-27 12:06 -2.03540 35.23548 40149 ft 517 kts 308°
2026-04-27 12:06 -1.99241 35.17780 40139 ft 518 kts 308°
2026-04-27 12:07 -1.94936 35.12006 40139 ft 518 kts 308°
2026-04-27 12:07 -1.90625 35.06224 40141 ft 519 kts 308°
2026-04-27 12:08 -1.86346 35.00485 40142 ft 518 kts 308°
2026-04-27 12:08 -1.82037 34.94706 40140 ft 518 kts 308°
2026-04-27 12:09 -1.77728 34.88926 40142 ft 518 kts 308°
2026-04-27 12:09 -1.73417 34.83145 40144 ft 519 kts 308°
2026-04-27 12:10 -1.69137 34.77405 40142 ft 519 kts 308°
2026-04-27 12:10 -1.64826 34.71624 40141 ft 519 kts 308°
2026-04-27 12:11 -1.60511 34.65839 40119 ft 518 kts 308°
2026-04-27 12:11 -1.56202 34.60060 40120 ft 519 kts 308°
2026-04-27 12:12 -1.51884 34.54273 40118 ft 519 kts 308°
2026-04-27 12:12 -1.47595 34.48525 40114 ft 519 kts 308°
2026-04-27 12:13 -1.43276 34.42737 40112 ft 519 kts 308°
2026-04-27 12:13 -1.38966 34.36960 40113 ft 519 kts 308°
2026-04-27 12:14 -1.34650 34.31178 40114 ft 519 kts 308°
2026-04-27 12:14 -1.30365 34.25436 40111 ft 519 kts 308°
2026-04-27 12:15 -1.26050 34.19657 40109 ft 519 kts 308°
2026-04-27 12:15 -1.21736 34.13879 40111 ft 519 kts 308°
2026-04-27 12:16 -1.17422 34.08103 40110 ft 519 kts 308°
2026-04-27 12:16 -1.13135 34.02362 40109 ft 519 kts 308°
2026-04-27 12:17 -1.08822 33.96587 40112 ft 518 kts 308°
2026-04-27 12:17 -1.04503 33.90804 40114 ft 519 kts 308°
2026-04-27 12:18 -1.00192 33.85030 40116 ft 518 kts 308°
2026-04-27 12:18 -0.95901 33.79284 40116 ft 520 kts 308°
2026-04-27 12:19 -0.91574 33.73487 40118 ft 520 kts 308°
2026-04-27 12:19 -0.87246 33.67692 40115 ft 520 kts 308°
2026-04-27 12:20 -0.82920 33.61899 40114 ft 520 kts 308°
2026-04-27 12:20 -0.78657 33.56188 39414 ft 507 kts 308°
2026-04-27 12:20 -0.76569 33.53391 38755 ft 496 kts 308°
2026-04-27 12:21 -0.74529 33.50660 38110 ft 486 kts 308°
2026-04-27 12:21 -0.72527 33.47982 37476 ft 475 kts 308°
2026-04-27 12:21 -0.70571 33.45363 36856 ft 465 kts 308°
2026-04-27 12:21 -0.68652 33.42792 36248 ft 459 kts 308°
2026-04-27 12:22 -0.66750 33.40247 35642 ft 458 kts 308°
2026-04-27 12:22 -0.64861 33.37717 35032 ft 460 kts 308°
2026-04-27 12:22 -0.62942 33.35148 34419 ft 465 kts 308°
2026-04-27 12:22 -0.60998 33.32544 33834 ft 468 kts 307°
2026-04-27 12:23 -0.59318 33.29760 33160 ft 472 kts 293°
2026-04-27 12:23 -0.58222 33.26669 32585 ft 474 kts 289°
2026-04-27 12:23 -0.57189 33.23529 31946 ft 477 kts 288°
2026-04-27 12:23 -0.56145 33.20374 31300 ft 479 kts 289°
2026-04-27 12:24 -0.55068 33.17220 30665 ft 482 kts 289°
2026-04-27 12:24 -0.53986 33.14054 30025 ft 479 kts 289°
2026-04-27 12:24 -0.52949 33.10962 29390 ft 474 kts 289°
2026-04-27 12:24 -0.51910 33.07848 28758 ft 470 kts 289°
2026-04-27 12:25 -0.50869 33.04770 28138 ft 466 kts 289°
2026-04-27 12:25 -0.49831 33.01715 27522 ft 462 kts 289°
2026-04-27 12:25 -0.48810 32.98687 26912 ft 458 kts 289°
2026-04-27 12:25 -0.47800 32.95678 26305 ft 455 kts 289°
2026-04-27 12:26 -0.46793 32.92692 25704 ft 452 kts 289°
2026-04-27 12:26 -0.45778 32.89739 25105 ft 447 kts 291°
2026-04-27 12:26 -0.44292 32.87040 24480 ft 442 kts 308°
2026-04-27 12:26 -0.42235 32.84841 23931 ft 437 kts 316°
2026-04-27 12:27 -0.40046 32.82749 23361 ft 434 kts 317°
2026-04-27 12:27 -0.37861 32.80693 22785 ft 431 kts 317°
2026-04-27 12:27 -0.35714 32.78613 22206 ft 427 kts 316°
2026-04-27 12:27 -0.33604 32.76543 21648 ft 424 kts 316°
2026-04-27 12:28 -0.31492 32.74503 21083 ft 421 kts 317°
2026-04-27 12:28 -0.29385 32.72485 20516 ft 418 kts 317°
2026-04-27 12:28 -0.27301 32.70476 19962 ft 415 kts 317°
2026-04-27 12:28 -0.25270 32.68506 19421 ft 412 kts 317°
2026-04-27 12:29 -0.23217 32.66521 18876 ft 408 kts 317°
2026-04-27 12:29 -0.21181 32.64560 18332 ft 405 kts 317°
2026-04-27 12:29 -0.19141 32.62633 17794 ft 401 kts 320°
2026-04-27 12:29 -0.16766 32.61234 17224 ft 395 kts 340°
2026-04-27 12:30 -0.14115 32.60609 16743 ft 391 kts 352°
2026-04-27 12:30 -0.11424 32.60244 16236 ft 389 kts 354°
2026-04-27 12:30 -0.08748 32.59898 15712 ft 387 kts 353°
2026-04-27 12:30 -0.06125 32.59532 15199 ft 384 kts 353°
2026-04-27 12:31 -0.03484 32.59151 14686 ft 382 kts 353°
2026-04-27 12:31 -0.00856 32.58786 14178 ft 380 kts 353°
2026-04-27 12:31 0.01757 32.58431 13677 ft 378 kts 353°
2026-04-27 12:31 0.04351 32.58072 13171 ft 375 kts 353°
2026-04-27 12:32 0.06919 32.57711 12675 ft 374 kts 353°
2026-04-27 12:32 0.09505 32.57351 12180 ft 371 kts 353°
2026-04-27 12:32 0.11194 32.57118 11852 ft 371 kts 353°
2026-04-27 12:32 0.13741 32.56766 11362 ft 367 kts 352°
2026-04-27 12:33 0.16974 32.56315 10731 ft 343 kts 352°
2026-04-27 12:33 0.19291 32.55994 10281 ft 329 kts 353°
2026-04-27 12:33 0.21503 32.55691 9854 ft 315 kts 352°
2026-04-27 12:33 0.23645 32.55391 9443 ft 305 kts 352°
2026-04-27 12:34 0.25714 32.55102 9039 ft 296 kts 352°
2026-04-27 12:34 0.27060 32.54916 8784 ft 293 kts 352°
2026-04-27 12:34 0.29051 32.54641 8673 ft 284 kts 352°
2026-04-27 12:34 0.30964 32.54097 8546 ft 292 kts 330°
2026-04-27 12:35 0.32343 32.52653 8384 ft 291 kts 297°
2026-04-27 12:35 0.32817 32.50713 8307 ft 289 kts 271°
2026-04-27 12:35 0.32110 32.48198 8241 ft 288 kts 237°
2026-04-27 12:35 0.30794 32.46691 8273 ft 287 kts 225°
2026-04-27 12:36 0.29852 32.45756 8330 ft 288 kts 225°
2026-04-27 12:36 0.28505 32.44350 8355 ft 259 kts 227°
2026-04-27 12:36 0.27336 32.43052 8374 ft 243 kts 228°
2026-04-27 12:36 0.26194 32.41812 8306 ft 242 kts 225°
2026-04-27 12:37 0.24754 32.40990 8125 ft 241 kts 192°
2026-04-27 12:37 0.23101 32.41112 8015 ft 239 kts 168°
2026-04-27 12:37 0.21466 32.41419 8041 ft 239 kts 172°
2026-04-27 12:37 0.19813 32.41634 8077 ft 240 kts 173°
2026-04-27 12:38 0.18159 32.41858 8111 ft 240 kts 172°
2026-04-27 12:38 0.16641 32.42070 7671 ft 199 kts 172°
2026-04-27 12:38 0.15333 32.42253 6605 ft 187 kts 172°
2026-04-27 12:38 0.14037 32.42434 5711 ft 182 kts 173°
2026-04-27 12:39 0.12816 32.42606 4692 ft 183 kts 174°
2026-04-27 12:39 0.11573 32.42781 4341 ft 178 kts 174°
2026-04-27 12:39 0.10412 32.42947 4786 ft 159 kts 174°
2026-04-27 12:39 0.09367 32.43091 4619 ft 148 kts 175°
2026-04-27 12:40 0.08375 32.43229 4379 ft 138 kts 174°
2026-04-27 12:40 0.07447 32.43358 4193 ft 132 kts 174°
2026-04-27 12:40 0.06546 32.43483 4021 ft 130 kts 175°
2026-04-27 12:40 0.05646 32.43608 3843 ft 130 kts 173°
2026-04-27 12:41 0.04767 32.43731 3782 ft 123 kts 174°
2026-04-27 12:41 0.04006 32.43834 3770 ft 87 kts 172°
2026-04-27 12:41 0.03637 32.43885 3764 ft 4 kts 173°
2026-04-27 12:41 0.03637 32.43886 3764 ft 0 kts 173°